Location: Waldport
(44.4270°N, 124.0680°W)
Time: 06:25:49
(UTC-07:00)

NOSS 3-2 (A) - Pass Details

Date: 23 June 2018
Orbit: 846 x 1362 km, 63.4° (Epoch: 21 September)

Event Time Altitude Azimuth Distance (km) Brightness Sun altitude
Rises 22:48:26 0° 321° (NW) 3,995 8.7 -14.0°
Reaches altitude 10° 22:51:02 10° 319° (NW) 3,101 7.5 -14.2°
Maximum altitude 22:58:33 73° 237° (WSW) 1,327 4.2 -15.0°
Enters shadow 23:04:32 21° 157° (SSE) 2,636 5.1 -15.6°
